Location: Observatoire
(46.1952°N, 5.3391°E)
Time: 01:11:49
(UTC+02:00)

AO-91 - Visible Passes

Search period start: 24 April 2024 00:00
Search period end: 04 May 2024 00:00
Orbit: 441 x 742 km, 97.6° (Epoch: 23 April)

Date Brightness Start Highest point End Pass type
(mag) Time Alt. Az. Time Alt. Az. Time Alt. Az.
24 Apr ? 00:00:31 10° N 00:02:35 27° NW 00:02:35 27° NW visible
24 Apr ? 22:33:53 10° NE 22:34:41 14° ENE 22:34:41 14° ENE visible
25 Apr ? 00:09:08 10° NNW 00:11:16 24° NW 00:11:16 24° NW visible
25 Apr ? 22:42:03 10° NE 22:43:21 18° ENE 22:43:21 18° ENE visible
26 Apr ? 00:17:46 10° NNW 00:19:56 21° WNW 00:19:56 21° WNW visible
26 Apr ? 22:50:16 10° NE 22:51:59 23° ENE 22:51:59 23° ENE visible
27 Apr ? 00:26:26 10° NNW 00:28:34 17° WNW 00:28:34 17° WNW visible
27 Apr ? 22:58:30 10° NNE 23:00:36 29° ENE 23:00:36 29° ENE visible
28 Apr ? 00:35:10 10° NNW 00:37:03 14° WNW 00:37:10 14° WNW visible
28 Apr ? 23:06:45 10° NNE 23:09:11 38° NE 23:09:11 38° NE visible
29 Apr ? 00:44:02 10° NW 00:45:20 12° WNW 00:45:45 12° WNW visible
29 Apr ? 23:15:01 10° NNE 23:17:44 50° NE 23:17:44 50° NE visible
30 Apr ? 23:23:16 10° NNE 23:26:16 66° NNE 23:26:16 66° NNE visible
01 May ? 23:31:31 10° N 23:34:46 73° NW 23:34:46 73° NW visible
02 May ? 23:39:46 10° N 23:43:13 60° WNW 23:43:15 60° WNW visible
03 May ? 22:14:00 10° ENE 22:15:08 12° E 22:15:08 12° E visible
03 May ? 23:48:00 10° N 23:51:24 47° WNW 23:51:42 46° W visible
